Location: Ariel
(45.9570°N, 122.5700°W)
Time: 15:46:52
(UTC-07:00)

Transit 4A - Pass Details

Date: 23 July 2019
Orbit: 863 x 981 km, 66.8° (Epoch: 18 August)

Event Time Altitude Azimuth Distance (km) Brightness Sun altitude
Exits shadow 01:24:46 32° 127° (SE) 1,605 8.8 -23.9°
Maximum altitude 01:25:42 34° 110° (ESE) 1,564 8.9 -23.9°
Drops below altitude 10° 01:31:21 10° 48° (NE) 2,741 10.9 -23.9°
Sets 01:34:09 0° 40° (NE) 3,691 11.9 -23.8°
